Content
SEND FEEDBACK

Daily
Averages
Monthly
Summary
United States of America

PUT IN BAY, OHIO


Home > North America > United States > Ohio
Elevation: 561 feet     Latitude: 41 39N     Longitude: 082 48W

WEATHER
 
SELECT A DAY
Number of Records: 122,499;   Date Range: 12/10/00 - 7/23/14
 
SHARE

PRINT THIS DATA

[ ← Previous Day ]
WEATHER ALMANAC - JANUARY 6, 2013
[ Next Day → ]
[ °C ]   °F
Weather ElementAverageHighLow
Temperature33.6 °F35 °F (1:00 pm)31.3 °F (6:00 pm)
Dewpoint29.2 °F31.1 °F (3:00 pm)26.4 °F (10:00 pm)
Humidity83.3 %96 % (6:00 pm)75 % (1:00 pm)
Barometer30.02 in30.23 in (11:00 pm)29.94 in (1:00 pm)
Wind Speed10.8 mph13.8 mph (4:00 am)
Wind Gust20.7 mph (4:00 am)
Weather ElementAverage
Wind DirectionWSW (250 °)

Weather ElementTotal
Precipitation---
Heating Degree Days31.9 (Base 65)
Averaged from 25 records on January 6, 2013
WEATHER CONDITIONS BREAKOUT
WIND DIRECTION BREAKOUT
WEATHER BY HOUR - JANUARY 6, 2013
[ °C ]   °F
Local TimeTemperatureDewpointHumidityBarometerVisibilityWind DirectionWind SpeedGust SpeedPrecipitationEventsConditions
1:00 AM33.0 °F30.0 °F85 %30.05 inSW (230°)11.5 mph
1:00 AM31.5 °F30.2 °F95 %30.05 inSW (230°)11.5 mph
2:00 AM32.9 °F30.0 °F89 %30.03 inSW (220°)12.7 mph19.6 mph
3:00 AM33.4 °F29.8 °F87 %30.01 inSW (230°)11.5 mph18.4 mph
4:00 AM33.8 °F28.9 °F82 %29.99 inSW (230°)13.8 mph20.7 mph
5:00 AM34.2 °F28.8 °F81 %29.98 inSW (230°)13.8 mph19.6 mph
6:00 AM33.6 °F28.6 °F82 %29.95 inSW (230°)11.5 mph20.7 mph
7:00 AM33.0 °F29.0 °F79 %29.96 inSW (230°)10.4 mph
7:00 AM33.3 °F28.9 °F84 %29.96 inSW (230°)10.4 mph
9:00 AM33.8 °F29.7 °F85 %29.96 inSW (230°)10.4 mph
10:00 AM34.3 °F29.7 °F83 %29.97 inSW (230°)11.5 mph
11:00 AM34.7 °F29.8 °F82 %29.97 inSW (230°)12.7 mph
12:00 PM34.7 °F30.0 °F83 %29.95 inSW (230°)13.8 mph
1:00 PM35.0 °F30.0 °F75 %29.94 inWSW (240°)13.8 mph
1:00 PM34.7 °F30.0 °F83 %29.94 inWSW (240°)13.8 mph
2:00 PM34.5 °F30.6 °F85 %29.94 inWSW (250°)12.7 mph
3:00 PM33.8 °F31.1 °F90 %29.97 inWSW (250°)9.2 mph
4:00 PM34.2 °F28.9 °F81 %30.00 inWest (270°)11.5 mph
5:00 PM33.4 °F29.1 °F84 %30.04 inWest (270°)11.5 mph19.6 mph
6:00 PM31.3 °F30.4 °F96 %30.08 inWNW (290°)9.2 mph
7:00 PM33.0 °F29.0 °F78 %30.12 inWest (280°)8.1 mph
7:00 PM32.9 °F28.8 °F85 %30.12 inWest (280°)8.1 mph
9:00 PM33.3 °F26.6 °F77 %30.18 inWNW (300°)4.6 mph
10:00 PM33.4 °F26.4 °F75 %30.20 inWNW (290°)6.9 mph
11:00 PM33.1 °F26.4 °F77 %30.23 inNW (310°)5.8 mph
Hourly data recorded from CXHA, located miles away from Put In Bay, Ohio







STORIES FROM OUR PARTNERS